User: anonymous   Login
Location: Godiavel Galaoual
(15.2485°N, 12.6604°W)
Time: 20:28:17
(UTC+00:00)
Language:

USA 267 - Orbit

View from above orbital plane
View from above orbital plane
View from above satellite
View from above satellite

Ground track
Ground track

The orbit data is extracted from the following two-line orbital elements,

1 41334U 16010A   20096.07373221 0.00000000  00000-0  00000-0 0    08
2 41334 122.9964  19.7740 0003870 118.7024 241.2975 13.41431176    00
Epoch (UTC): 05 April 2020 01:46:10
Eccentricity: 0.0003870
inclination: 122.9964°
perigee height: 1101 km
apogee height: 1107 km
right ascension of ascending node: 19.7740°
argument of perigee: 118.7024°
revolutions per day: 13.41431176
mean anomaly at epoch: 241.2975°
orbit number at epoch: 0

The dashed part of the orbit path shows where the satellite is in the earth's shadow,  

DLR